Printer-friendly version

IAU Minor Planet Center

Minor Planet Center

MPEC 2006-K28 : 2006 KS1

The following Minor Planet Electronic Circular may be linked-to from your own Web pages, but must not otherwise be redistributed electronically.


Read MPEC 2006-K27 Read MPEC 2006-K29


M.P.E.C. 2006-K28                                Issued 2006 May 22, 14:04 UT

     The Minor Planet Electronic Circulars contain information on unusual
         minor planets and routine data on comets.  They are published
   on behalf of Commission 20 of the International Astronomical Union by the
          Minor Planet Center, Smithsonian Astrophysical Observatory,
                          Cambridge, MA 02138, U.S.A.

                  Supported in part by the Brinson Foundation
                  Supported in part by the TABASGO Foundation
             Prepared using the Tamkin Foundation Computer Network

                              MPC@CFA.HARVARD.EDU
          URL http://cfa-www.harvard.edu/iau/mpc.html  ISSN 1523-6714

                                   2006 KS1

Observations:
     K06K01S* C2006 05 21.32152 16 18 50.43 -18 03 11.7          19.9 V EK028G96
     K06K01S  C2006 05 21.32873 16 18 52.56 -18 02 50.5          19.6 V EK028G96
     K06K01S  C2006 05 21.33602 16 18 54.75 -18 02 28.8          19.3 V EK028G96
     K06K01S  C2006 05 21.34338 16 18 56.91 -18 02 07.1          19.8 V EK028G96
     K06K01S  C2006 05 21.44126 16 19 26.39 -17 57 12.0          19.2 V EK028G96
     K06K01S  C2006 05 21.44156 16 19 26.49 -17 57 11.0          20.2 V EK028G96
     K06K01S  C2006 05 21.44190 16 19 26.60 -17 57 10.0          19.5 V EK028G96
     K06K01S  C2006 05 21.44220 16 19 26.74 -17 57 08.0                 EK028G96
     K06K01S  C2006 05 22.32392 16 24 27.00 -17 16 24.6          20.0 V EK028G96
     K06K01S  C2006 05 22.32434 16 24 27.14 -17 16 23.8          19.6 V EK028G96
     K06K01S  C2006 05 22.32476 16 24 27.28 -17 16 22.8          19.5 V EK028G96
     K06K01S  C2006 05 22.32517 16 24 27.32 -17 16 21.4          19.8 V EK028G96

Observer details:
G96 Mt. Lemmon Survey.  Observer R. Hill.  Measurers E. C. Beshore,
    E. J. Christensen, G. J. Garradd, A. R. Gibbs, A. D. Grauer, R. E. Hill,
    R. A. Kowalski, S. M. Larson, R. H. McNaught.  1.5-m reflector + CCD.

Orbital elements:
2006 KS1                                                 Earth MOID = 0.0240 AU
Epoch 2006 Mar. 6.0 TT = JDT 2453800.5                  MPC
M 338.64900              (2000.0)            P               Q
n   0.55563004     Peri.  321.81861     -0.94105162     +0.33402767
a   1.4653642      Node   237.77533     -0.29277176     -0.88331016
e   0.3136061      Incl.    3.61643     -0.16943004     -0.32892047
P   1.77           H   25.2           G   0.15           U   8
Residuals in seconds of arc
060521 G96  0.1+  0.1-    060521 G96  0.3-  0.3-    060522 G96  0.3-  0.2+
060521 G96  0.1-  0.1-    060521 G96  0.2-  0.2-    060522 G96  0.1+  0.1-
060521 G96  0.2+  0.1+    060521 G96  0.1-  0.3-    060522 G96  0.6+  0.2-
060521 G96  0.2-  0.1+    060521 G96  0.6+  0.8+    060522 G96  0.4-  0.1+

Ephemeris:
2006 KS1                 a,e,i = 1.47, 0.31, 4                   q = 1.0058
Date    TT    R. A. (2000) Decl.     Delta      r     Elong.  Phase     V
2006 05 15    15 21.03   -24 54.1    0.0390   1.050   173.7     6.0    18.7
2006 05 20    16 10.32   -19 09.8    0.0521   1.064   174.3     5.5    19.4
2006 05 25    16 36.62   -15 29.6    0.0673   1.079   171.0     8.4    20.1
2006 05 30    16 51.93   -13 12.7    0.0840   1.096   169.6     9.6    20.7
2006 06 04    17 01.54   -11 48.6    0.102    1.115   168.9    10.1    21.1
2006 06 09    17 08.00   -10 59.2    0.121    1.134   168.1    10.6    21.6
2006 06 14    17 12.65   -10 33.3    0.142    1.155   166.8    11.6    22.0

Kyle E. Smalley              (C) Copyright 2006 MPC           M.P.E.C. 2006-K28

Read MPEC 2006-K27 Read MPEC 2006-K29


Our Web policy. Index to the CBAT/MPC/ICQ pages.


Valid HTML 4.01!